Date String (YYYY-MM-DD hh:mm:ss) UTC,Instrument flags,absolute air pressure of the measurement (hPa),sample flow rate (lpm),inlet stack bypass flow (lpm),air temperature of the measurement (°C),ambient temperature measured by the external sensor (°C),aerosol sample conditioner tube jacket temperature (°C),OPC LED temperature (°C),internal box temperature (°C),relative humidity of the measurement (%),span deviation,mass concentration of particles derived from Lorenz-Mie calculation of OPC scattering (μg/m³),mass concentration of particles derived from Lorenz-Mie calculation of OPC scattering (μg/m³),mass concentration of particles derived from Lorenz-Mie calculation of OPC scattering (μg/m³)
DateTimeUTC,F1_M11,P_M11,Q1_M11,Q2_M11,T1_M11,T2_M11,T3_M11,T4_M11,T5_M11,U1_M11,ZSPAN_M11,X0_M11,X2_M11,X1_M11
2023-09-13 06:00:00,SystemResetWarning,0831.9,5.02,000.00,028.3,027.0,000.0,036.8,029.9,20.7,0000.8,0009.44,0004.89,0004.42
2023-09-13 06:01:00,SystemResetWarning,0831.9,5.01,000.00,028.4,027.1,000.0,036.8,029.9,20.9,0001.2,0009.43,0004.88,0004.42
2023-09-13 06:02:00,SystemResetWarning,0831.9,4.99,000.00,028.4,027.1,000.0,036.8,029.9,20.8,0001.6,0009.17,0004.84,0004.41
2023-09-13 06:03:00,SystemResetWarning,0831.9,4.99,000.00,028.4,027.1,000.0,036.8,030.0,20.8,0001.6,0009.11,0004.86,0004.41
2023-09-13 06:04:00,SystemResetWarning,0831.9,5.01,000.00,028.4,027.1,000.0,036.8,030.0,20.9,0000.8,0008.73,0004.86,0004.41
2023-09-13 06:05:00,SystemResetWarning,0831.9,5.00,000.00,028.4,027.1,000.0,036.8,030.0,20.9,0000.8,0008.57,0004.83,0004.41
2023-09-13 06:06:00,SystemResetWarning,0831.9,5.00,000.00,028.4,027.1,000.0,036.8,030.0,20.8,0000.8,0008.37,0004.81,0004.41
2023-09-13 06:07:00,SystemResetWarning,0831.9,5.00,000.00,028.5,027.2,000.0,036.8,030.0,20.7,0001.1,0008.45,0004.82,0004.40
2023-09-13 06:08:00,SystemResetWarning,0831.9,5.00,000.00,028.5,027.2,000.0,036.8,030.0,20.6,0001.1,0008.38,0004.82,0004.39
2023-09-13 06:09:00,SystemResetWarning,0831.9,5.00,000.00,028.5,027.2,000.0,036.9,030.1,20.5,0001.0,0008.06,0004.76,0004.37
2023-09-13 06:10:00,SystemResetWarning,0831.9,5.00,000.00,028.5,027.2,000.0,036.9,030.1,20.7,0000.8,0008.03,0004.74,0004.37
2023-09-13 06:11:00,SystemResetWarning,0831.9,5.00,000.00,028.5,027.2,000.0,036.9,030.1,20.4,0001.0,0008.05,0004.76,0004.37
2023-09-13 06:12:00,SystemResetWarning,0831.9,5.00,000.00,028.5,027.2,000.0,036.9,030.1,20.3,0001.0,0008.15,0004.78,0004.37
2023-09-13 06:13:00,SystemResetWarning,0831.8,5.00,000.00,028.6,027.3,000.0,036.9,030.1,20.2,0000.6,0008.22,0004.79,0004.38
2023-09-13 06:14:00,SystemResetWarning,0831.9,5.00,000.00,028.6,027.3,000.0,036.9,030.1,20.4,0000.0,0008.11,0004.78,0004.37
2023-09-13 06:15:00,SystemResetWarning,0831.8,5.00,000.00,028.6,027.3,000.0,036.9,030.1,20.4,0000.0,0008.22,0004.78,0004.37
2023-09-13 06:16:00,SystemResetWarning,0831.8,5.00,000.00,028.6,027.3,000.0,036.9,030.1,20.3,0000.0,0008.33,0004.81,0004.38
2023-09-13 06:17:00,SystemResetWarning,0831.8,5.01,000.00,028.6,027.3,000.0,036.9,030.2,20.1,0000.0,0008.50,0004.85,0004.39
2023-09-13 06:18:00,SystemResetWarning,0831.9,5.00,000.00,028.6,027.3,000.0,037.0,030.2,20.1,0000.0,0008.45,0004.89,0004.40
2023-09-13 06:19:00,SystemResetWarning,0831.9,5.01,000.00,028.6,027.3,000.0,037.0,030.2,20.1,0000.0,0008.38,0004.89,0004.41
2023-09-13 06:20:00,SystemResetWarning,0831.9,4.99,000.00,028.7,027.3,000.0,037.0,030.2,20.2,0000.0,0008.34,0004.91,0004.43
2023-09-13 06:21:00,SystemResetWarning,0832.2,4.99,000.00,028.7,027.4,000.0,037.0,030.2,20.3,0000.2,0008.38,0004.91,0004.43
2023-09-13 06:22:00,SystemResetWarning,0832.1,4.99,000.00,028.7,027.3,000.0,037.0,030.2,20.1,0000.5,0008.35,0004.90,0004.43
2023-09-13 06:23:00,SystemResetWarning,0832.0,5.03,000.00,028.7,027.3,000.0,037.0,030.2,20.1,0000.4,0008.48,0004.89,0004.44
2023-09-13 06:24:00,SystemResetWarning,0832.3,5.00,000.00,028.7,027.4,000.0,037.0,030.3,20.1,0000.7,0008.58,0004.90,0004.44
2023-09-13 06:25:00,SystemResetWarning,0831.9,4.99,000.00,028.7,027.4,000.0,037.0,030.3,20.1,0000.2,0008.53,0004.89,0004.44
2023-09-13 06:26:00,SystemResetWarning,0832.2,4.99,000.00,028.7,027.4,000.0,037.0,030.3,20.0,0000.3,0008.42,0004.89,0004.45
2023-09-13 06:27:00,SystemResetWarning,0832.3,5.00,000.00,028.7,027.4,000.0,037.1,030.3,20.0,0000.5,0008.31,0004.89,0004.46
2023-09-13 06:28:00,SystemResetWarning,0832.1,5.00,000.00,028.8,027.4,000.0,037.1,030.3,19.8,0000.9,0008.13,0004.86,0004.46
2023-09-13 06:29:00,SystemResetWarning,0832.1,5.01,000.00,028.8,027.4,000.0,037.1,030.3,19.8,0001.2,0008.10,0004.84,0004.47
2023-09-13 06:30:00,SystemResetWarning,0832.0,5.00,000.00,028.8,027.4,000.0,037.1,030.3,19.8,0001.3,0009.08,0004.84,0004.48
2023-09-13 06:31:00,SystemResetWarning,0831.7,4.99,000.00,028.8,027.4,000.0,037.1,030.3,19.6,0001.2,0009.16,0004.82,0004.49
2023-09-13 06:32:00,SystemResetWarning,0831.8,5.00,000.00,028.8,027.4,000.0,037.1,030.3,19.6,0001.4,0009.86,0004.83,0004.49
2023-09-13 06:33:00,SystemResetWarning,0831.7,5.00,000.00,028.8,027.4,000.0,037.1,030.4,19.7,0000.5,0010.05,0004.83,0004.48
2023-09-13 06:34:00,SystemResetWarning,0831.7,5.00,000.00,028.8,027.4,000.0,037.1,030.4,19.5,0000.0,0009.91,0004.86,0004.50
2023-09-13 06:35:00,SystemResetWarning,0831.7,5.00,000.00,028.8,027.4,000.0,037.1,030.4,19.6,0000.0,0009.74,0004.84,0004.50
2023-09-13 06:36:00,SystemResetWarning,0831.7,4.98,000.00,028.8,026.6,000.0,037.1,030.3,19.6,0000.2,0009.74,0004.83,0004.51
2023-09-13 06:37:00,SystemResetWarning,0831.7,5.01,000.00,028.7,024.7,000.0,037.0,029.9,19.6,0001.0,0009.73,0004.84,0004.53
2023-09-13 06:38:00,SystemResetWarning,0831.6,5.01,000.00,028.6,024.2,000.0,036.9,029.7,19.6,0000.7,0009.74,0004.84,0004.52
2023-09-13 06:39:00,SystemResetWarning,0831.6,5.01,000.00,028.5,024.3,000.0,036.9,029.5,19.9,0001.0,0009.83,0004.86,0004.53
2023-09-13 06:40:00,SystemResetWarning,0831.6,4.99,000.00,028.4,024.7,000.0,036.9,029.4,20.0,0000.8,0009.75,0004.84,0004.53
2023-09-13 06:41:00,SystemResetWarning,0831.6,5.00,000.00,028.3,025.1,000.0,036.9,029.4,20.1,0001.1,0008.72,0004.83,0004.52
2023-09-13 06:42:00,SystemResetWarning,0831.6,5.00,000.00,028.3,025.4,000.0,036.8,029.5,20.0,0001.2,0008.65,0004.84,0004.53
2023-09-13 06:43:00,SystemResetWarning,0831.6,5.00,000.00,028.2,025.7,000.0,036.8,029.5,20.0,0001.2,0008.18,0004.83,0004.53
2023-09-13 06:44:00,SystemResetWarning,0831.6,5.01,000.00,028.2,025.9,000.0,036.8,029.6,20.1,0001.0,0008.32,0004.83,0004.54
2023-09-13 06:45:00,SystemResetWarning,0831.6,4.99,000.00,028.2,026.1,000.0,036.8,029.6,20.2,0000.9,0008.51,0004.82,0004.53
2023-09-13 06:46:00,SystemResetWarning,0831.6,4.99,000.00,028.2,026.3,000.0,036.8,029.6,20.0,0001.5,0008.48,0004.82,0004.53
2023-09-13 06:47:00,SystemResetWarning,0831.6,5.00,000.00,028.2,026.4,000.0,036.8,029.7,19.7,0001.5,0008.55,0004.82,0004.52
2023-09-13 06:48:00,SystemResetWarning,0831.6,5.02,000.00,028.2,026.6,000.0,036.8,029.7,19.8,0001.4,0008.80,0004.81,0004.52
2023-09-13 06:49:00,SystemResetWarning,0831.6,5.00,000.00,028.2,026.6,000.0,036.7,029.7,19.6,0001.6,0009.27,0004.82,0004.51
2023-09-13 06:50:00,SystemResetWarning,0831.6,4.99,000.00,028.2,026.7,000.0,036.7,029.8,19.7,0001.6,0009.91,0004.85,0004.52
2023-09-13 06:51:00,SystemResetWarning,0831.6,4.99,000.00,028.3,026.8,000.0,036.7,029.8,19.7,0000.1,0010.16,0004.87,0004.51
2023-09-13 06:52:00,SystemResetWarning,0831.6,5.00,000.00,028.3,026.8,000.0,036.7,029.8,19.5,0001.6,0010.29,0004.85,0004.51
2023-09-13 06:53:00,SystemResetWarning,0831.6,5.01,000.00,028.3,026.9,000.0,036.7,029.8,19.3,0001.1,0010.51,0004.85,0004.51
2023-09-13 06:54:00,SystemResetWarning,0831.6,5.00,000.00,028.3,026.9,000.0,036.7,029.8,19.5,0000.8,0011.06,0004.83,0004.50
2023-09-13 06:55:00,SystemResetWarning,0831.6,5.01,000.00,028.3,027.0,000.0,036.7,029.9,19.4,0001.0,0010.57,0004.82,0004.49
2023-09-13 06:56:00,SystemResetWarning,0831.6,5.00,000.00,028.3,027.0,000.0,036.7,029.9,19.2,0001.0,0010.42,0004.82,0004.49
2023-09-13 06:57:00,SystemResetWarning,0831.6,4.99,000.00,028.4,027.0,000.0,036.7,030.0,19.3,0001.0,0010.40,0004.82,0004.49
2023-09-13 06:58:00,SystemResetWarning,0831.6,4.99,000.00,028.4,027.1,000.0,036.8,030.0,19.2,0001.4,0010.54,0004.83,0004.50
2023-09-13 06:59:00,SystemResetWarning,0831.6,4.99,000.00,028.4,027.1,000.0,036.8,030.0,19.1,0001.7,0010.55,0004.83,0004.49
